QPF
0.00 0.00 0.00 0.00 0.04 0.13 0.10 0.01 0.00 0.00 0.00 0.00 0.00 0.00 0.00 0.00 0.00 0.01 0.00 0.00 0.00 0.00 0.00 0.00 0.00 0.00 0.00 0.00 0.00 0.00 0.00 0.00 0.00 0.00 0.00 0.00 0.00 0.00 0.00 0.00 0.00 0.00 0.00 0.01 0.01 0.00 0.00 0.00 0.00
0.00 0.00 0.00 0.00 0.05 0.12 0.04 0.00 0.00 0.00 0.00 0.00 0.00 0.00 0.00 0.00 0.00 0.00 0.00 0.00 0.00 0.00 0.00 0.00 0.00 0.00 0.00 0.00 0.00 0.00 0.00 0.00 0.00 0.00 0.00 0.00 0.00 0.00 0.00 0.00 0.00 0.00 0.01 0.01 0.01 0.00 0.00 0.00 0.00
0.00 0.00 0.00 0.00 0.02 0.02 0.01 0.00 0.00 0.00 0.00 0.00 0.00 0.00 0.00 0.00 0.00 0.00 0.00 0.00 0.00 0.00 0.00 0.00 0.00 0.00 0.00 0.00 0.00 0.00 0.00 0.00 0.00 0.00 0.00 0.00 0.00 0.00 0.00 0.00 0.00 0.01 0.01 0.02 0.01 0.01 0.00 0.00 0.00
0.00 0.00 0.00 0.00 0.00 0.00 0.00 0.00 0.00 0.00 0.00 0.00 0.00 0.00 0.00 0.00 0.00 0.00 0.00 0.00 0.00 0.00 0.00 0.00 0.00 0.00 0.00 0.00 0.00 0.00 0.00 0.00 0.00 0.00 0.00 0.00 0.00 0.00 0.00 0.01 0.01 0.01 0.01 0.01 0.01 0.01 0.00 0.00 0.00
0.00 0.00 0.00 0.00 0.00 0.00 0.00 0.00 0.00 0.00 0.00 0.00 0.00 0.00 0.00 0.00 0.00 0.00 0.00 0.00 0.00 0.00 0.00 0.00 0.00 0.00 0.00 0.00 0.00 0.00 0.00 0.00 0.00 0.00 0.00 0.00 0.00 0.00 0.01 0.01 0.01 0.01 0.01 0.01 0.01 0.00 0.00 0.00 0.00
0.00 0.00 0.00 0.00 0.00 0.00 0.00 0.00 0.00 0.00 0.00 0.00 0.00 0.00 0.00 0.00 0.00 0.00 0.00 0.00 0.00 0.00 0.00 0.00 0.00 0.00 0.00 0.00 0.00 0.00 0.00 0.00 0.00 0.00 0.00 0.00 0.00 0.00 0.01 0.01 0.01 0.01 0.01 0.00 0.00 0.00 0.00 0.00 0.00
0.00 0.00 0.00 0.00 0.00 0.00 0.00 0.00 0.00 0.00 0.00 0.00 0.00 0.00 0.01 0.00 0.00 0.00 0.00 0.00 0.00 0.00 0.00 0.00 0.00 0.00 0.00 0.00 0.00 0.00 0.00 0.00 0.00 0.00 0.00 0.00 0.00 0.00 0.00 0.00 0.00 0.01 0.01 0.01 0.00 0.00 0.00 0.00 0.00
0.00 0.00 0.00 0.00 0.00 0.00 0.00 0.00 0.00 0.00 0.00 0.00 0.00 0.01 0.04 0.01 0.00 0.00 0.00 0.00 0.00 0.00 0.00 0.00 0.00 0.00 0.00 0.00 0.00 0.00 0.00 0.00 0.00 0.00 0.00 0.00 0.00 0.00 0.00 0.00 0.00 0.00 0.00 0.01 0.00 0.00 0.00 0.00 0.00
0.00 0.00 0.00 0.00 0.00 0.00 0.00 0.00 0.00 0.00 0.00 0.01 0.00 0.01 0.02 0.01 0.00 0.00 0.00 0.00 0.00 0.00 0.00 0.00 0.00 0.00 0.00 0.00 0.00 0.00 0.00 0.00 0.00 0.00 0.00 0.00 0.00 0.00 0.00 0.00 0.00 0.00 0.00 0.00 0.01 0.01 0.01 0.01 0.01
0.00 0.00 0.00 0.00 0.00 0.00 0.00 0.00 0.00 0.00 0.01 0.04 0.01 0.00 0.00 0.00 0.00 0.01 0.00 0.00 0.00 0.00 0.00 0.00 0.00 0.00 0.00 0.00 0.02 0.03 0.02 0.03 0.03 0.03 0.03 0.03 0.02 0.01 0.01 0.01 0.02 0.02 0.01 0.01 0.01 0.01 0.02 0.02 0.03
0.00 0.00 0.00 0.00 0.00 0.00 0.00 0.00 0.00 0.00 0.01 0.02 0.01 0.00 0.00 0.00 0.00 0.00 0.01 0.01 0.00 0.00 0.00 0.00 0.00 0.01 0.01 0.02 0.04 0.05 0.05 0.09 0.11 0.12 0.14 0.13 0.11 0.06 0.03 0.03 0.05 0.04 0.03 0.02 0.03 0.03 0.02 0.03 0.05
0.00 0.00 0.00 0.00 0.00 0.00 0.00 0.00 0.00 0.00 0.00 0.01 0.00 0.00 0.00 0.00 0.00 0.02 0.03 0.02 0.02 0.01 0.00 0.00 0.00 0.01 0.02 0.05 0.05 0.05 0.05 0.07 0.09 0.13 0.16 0.19 0.19 0.13 0.09 0.06 0.06 0.09 0.09 0.09 0.07 0.08 0.06 0.08 0.08
0.00 0.00 0.00 0.00 0.00 0.00 0.00 0.00 0.00 0.00 0.00 0.00 0.00 0.00 0.00 0.00 0.01 0.03 0.04 0.02 0.02 0.02 0.02 0.01 0.01 0.03 0.05 0.07 0.07 0.04 0.04 0.04 0.04 0.09 0.14 0.20 0.22 0.21 0.21 0.16 0.14 0.10 0.09 0.13 0.13 0.09 0.12 0.14 0.12
0.00 0.00 0.00 0.00 0.00 0.00 0.00 0.00 0.00 0.00 0.00 0.00 0.00 0.00 0.00 0.01 0.01 0.02 0.02 0.03 0.03 0.03 0.03 0.02 0.02 0.04 0.06 0.09 0.09 0.09 0.07 0.06 0.05 0.09 0.11 0.19 0.24 0.26 0.30 0.29 0.25 0.17 0.11 0.12 0.19 0.19 0.22 0.20 0.17
0.00 0.00 0.00 0.00 0.00 0.00 0.00 0.00 0.00 0.00 0.00 0.00 0.00 0.00 0.00 0.00 0.01 0.01 0.02 0.02 0.03 0.03 0.03 0.03 0.03 0.03 0.04 0.05 0.06 0.07 0.05 0.04 0.04 0.06 0.08 0.11 0.15 0.20 0.24 0.25 0.26 0.23 0.20 0.20 0.25 0.29 0.33 0.24 0.20
0.00 0.00 0.00 0.00 0.00 0.00 0.00 0.02 0.02 0.01 0.01 0.00 0.00 0.00 0.00 0.00 0.01 0.01 0.01 0.01 0.02 0.02 0.03 0.03 0.03 0.02 0.02 0.03 0.04 0.04 0.04 0.03 0.03 0.04 0.05 0.06 0.09 0.14 0.19 0.22 0.25 0.30 0.32 0.33 0.35 0.37 0.41 0.36 0.29
0.00 0.00 0.01 0.03 0.02 0.01 0.00 0.01 0.01 0.01 0.01 0.00 0.00 0.00 0.00 0.00 0.00 0.01 0.01 0.01 0.02 0.02 0.03 0.03 0.02 0.02 0.01 0.01 0.02 0.03 0.03 0.04 0.05 0.05 0.05 0.06 0.09 0.12 0.16 0.20 0.25 0.33 0.34 0.35 0.33 0.38 0.41 0.37 0.32
0.01 0.02 0.05 0.12 0.07 0.02 0.00 0.00 0.00 0.00 0.00 0.00 0.00 0.00 0.00 0.00 0.01 0.01 0.01 0.01 0.01 0.02 0.02 0.02 0.02 0.02 0.01 0.01 0.01 0.01 0.02 0.03 0.04 0.04 0.04 0.05 0.06 0.08 0.12 0.17 0.23 0.28 0.31 0.33 0.35 0.39 0.41 0.37 0.32
0.00 0.01 0.03 0.07 0.04 0.01 0.01 0.00 0.00 0.00 0.00 0.00 0.00 0.00 0.00 0.00 0.00 0.00 0.00 0.00 0.01 0.02 0.02 0.01 0.01 0.01 0.01 0.01 0.01 0.01 0.01 0.01 0.02 0.03 0.03 0.03 0.03 0.04 0.09 0.17 0.29 0.35 0.35 0.40 0.45 0.45 0.41 0.34 0.31
0.00 0.00 0.03 0.06 0.02 0.00 0.00 0.01 0.02 0.02 0.01 0.00 0.00 0.00 0.00 0.00 0.00 0.00 0.00 0.00 0.00 0.01 0.01 0.01 0.01 0.01 0.01 0.01 0.00 0.00 0.00 0.00 0.01 0.01 0.02 0.02 0.02 0.03 0.07 0.14 0.19 0.23 0.27 0.30 0.35 0.39 0.38 0.34 0.29
0.00 0.01 0.06 0.08 0.02 0.01 0.01 0.03 0.05 0.04 0.01 0.00 0.00 0.00 0.00 0.00 0.00 0.00 0.00 0.00 0.00 0.00 0.00 0.00 0.00 0.00 0.00 0.00 0.00 0.00 0.00 0.00 0.00 0.01 0.01 0.01 0.01 0.02 0.05 0.12 0.17 0.20 0.24 0.26 0.27 0.26 0.27 0.28 0.26
0.02 0.01 0.01 0.01 0.01 0.02 0.03 0.12 0.15 0.10 0.05 0.03 0.01 0.00 0.00 0.00 0.00 0.00 0.00 0.00 0.00 0.00 0.00 0.00 0.00 0.00 0.00 0.00 0.00 0.00 0.00 0.00 0.00 0.00 0.00 0.00 0.00 0.01 0.02 0.06 0.10 0.16 0.22 0.28 0.27 0.26 0.25 0.23 0.21
0.01 0.00 0.00 0.00 0.01 0.03 0.09 0.19 0.25 0.12 0.13 0.08 0.02 0.00 0.00 0.00 0.00 0.00 0.00 0.00 0.00 0.00 0.00 0.00 0.00 0.00 0.00 0.00 0.00 0.00 0.00 0.00 0.00 0.00 0.00 0.00 0.00 0.00 0.01 0.02 0.04 0.08 0.13 0.17 0.21 0.27 0.28 0.26 0.21
0.00 0.00 0.01 0.04 0.06 0.13 0.24 0.24 0.30 0.22 0.17 0.06 0.01 0.00 0.00 0.00 0.00 0.00 0.00 0.00 0.00 0.00 0.00 0.00 0.00 0.00 0.00 0.00 0.00 0.00 0.01 0.01 0.00 0.00 0.00 0.00 0.00 0.00 0.00 0.00 0.01 0.02 0.05 0.08 0.12 0.17 0.22 0.26 0.25
0.00 0.00 0.07 0.24 0.32 0.26 0.19 0.16 0.19 0.06 0.02 0.01 0.00 0.00 0.00 0.00 0.00 0.00 0.00 0.00 0.00 0.00 0.00 0.00 0.00 0.00 0.00 0.00 0.00 0.00 0.01 0.01 0.01 0.00 0.00 0.00 0.00 0.00 0.00 0.00 0.00 0.01 0.02 0.03 0.06 0.09 0.16 0.22 0.26
0.00 0.00 0.04 0.11 0.09 0.09 0.08 0.13 0.11 0.01 0.00 0.00 0.00 0.00 0.00 0.00 0.00 0.00 0.00 0.00 0.00 0.00 0.00 0.00 0.00 0.00 0.00 0.00 0.00 0.00 0.00 0.00 0.00 0.00 0.00 0.00 0.00 0.00 0.00 0.00 0.00 0.00 0.01 0.02 0.02 0.04 0.07 0.13 0.19
0.00 0.00 0.00 0.00 0.00 0.02 0.06 0.10 0.06 0.00 0.00 0.00 0.00 0.00 0.00 0.00 0.00 0.00 0.00 0.00 0.00 0.00 0.00 0.00 0.00 0.00 0.00 0.00 0.00 0.00 0.00 0.00 0.00 0.00 0.00 0.00 0.00 0.00 0.00 0.00 0.00 0.00 0.00 0.01 0.01 0.02 0.03 0.06 0.11
0.00 0.00 0.00 0.00 0.00 0.00 0.03 0.07 0.08 0.01 0.00 0.00 0.00 0.00 0.00 0.00 0.00 0.00 0.00 0.00 0.00 0.00 0.00 0.00 0.00 0.00 0.00 0.00 0.00 0.00 0.00 0.00 0.00 0.00 0.00 0.00 0.00 0.00 0.00 0.00 0.00 0.00 0.00 0.01 0.01 0.01 0.02 0.04 0.06
0.00 0.00 0.00 0.00 0.00 0.00 0.00 0.02 0.01 0.00 0.00 0.00 0.00 0.00 0.00 0.00 0.00 0.00 0.00 0.00 0.00 0.00 0.00 0.00 0.00 0.00 0.00 0.00 0.00 0.00 0.00 0.00 0.00 0.00 0.00 0.00 0.00 0.01 0.00 0.00 0.00 0.00 0.00 0.01 0.01 0.01 0.01 0.02 0.04
0.00 0.00 0.00 0.00 0.00 0.00 0.00 0.00 0.00 0.00 0.00 0.00 0.00 0.00 0.00 0.00 0.00 0.00 0.00 0.00 0.00 0.00 0.00 0.00 0.00 0.00 0.00 0.00 0.00 0.00 0.00 0.00 0.00 0.00 0.00 0.01 0.01 0.01 0.01 0.01 0.01 0.01 0.00 0.01 0.01 0.01 0.01 0.01 0.02
MSLP
1008.95 1009.73 1010.44 1010.90 1010.98 1010.62 1009.85 1008.79 1007.61 1006.51 1005.65 1005.12 1004.95 1005.06 1005.37 1005.75 1006.10 1006.36 1006.54 1006.68 1006.86 1007.13 1007.54 1008.08 1008.70 1009.32 1009.87 1010.28 1010.55 1010.71 1010.80 1010.91 1011.09 1011.39 1011.79 1012.27 1012.75 1013.19 1013.54 1013.76 1013.90 1013.98 1014.04 1014.13 1014.28 1014.46 1014.67 1014.88 1015.04
1008.98 1009.73 1010.33 1010.62 1010.51 1009.96 1009.04 1007.89 1006.69 1005.64 1004.88 1004.48 1004.44 1004.68 1005.09 1005.53 1005.91 1006.18 1006.37 1006.52 1006.72 1007.03 1007.48 1008.07 1008.73 1009.39 1009.97 1010.41 1010.71 1010.89 1011.01 1011.14 1011.35 1011.65 1012.04 1012.48 1012.91 1013.29 1013.56 1013.73 1013.82 1013.88 1013.94 1014.05 1014.21 1014.43 1014.66 1014.88 1015.05
1009.08 1009.73 1010.16 1010.25 1009.92 1009.19 1008.14 1006.95 1005.79 1004.84 1004.22 1003.98 1004.08 1004.42 1004.89 1005.35 1005.73 1005.98 1006.15 1006.30 1006.52 1006.87 1007.38 1008.02 1008.74 1009.46 1010.08 1010.56 1010.90 1011.12 1011.27 1011.43 1011.65 1011.94 1012.30 1012.69 1013.06 1013.35 1013.55 1013.65 1013.70 1013.74 1013.81 1013.94 1014.15 1014.41 1014.69 1014.93 1015.12
1009.20 1009.71 1009.94 1009.80 1009.26 1008.37 1007.25 1006.07 1004.99 1004.19 1003.75 1003.66 1003.89 1004.31 1004.80 1005.24 1005.57 1005.78 1005.91 1006.06 1006.29 1006.69 1007.26 1007.98 1008.76 1009.53 1010.20 1010.72 1011.09 1011.34 1011.52 1011.70 1011.92 1012.21 1012.54 1012.88 1013.17 1013.39 1013.51 1013.56 1013.57 1013.60 1013.70 1013.87 1014.14 1014.45 1014.77 1015.05 1015.24
1009.33 1009.64 1009.65 1009.29 1008.58 1007.58 1006.44 1005.33 1004.39 1003.77 1003.51 1003.58 1003.91 1004.36 1004.83 1005.20 1005.45 1005.58 1005.66 1005.80 1006.06 1006.52 1007.16 1007.95 1008.80 1009.62 1010.32 1010.87 1011.25 1011.50 1011.69 1011.88 1012.10 1012.38 1012.69 1012.98 1013.23 1013.39 1013.46 1013.47 1013.47 1013.50 1013.62 1013.85 1014.17 1014.54 1014.90 1015.20 1015.40
1009.41 1009.52 1009.31 1008.76 1007.91 1006.86 1005.77 1004.78 1004.02 1003.60 1003.52 1003.73 1004.12 1004.56 1004.96 1005.23 1005.36 1005.40 1005.43 1005.55 1005.85 1006.37 1007.09 1007.95 1008.86 1009.71 1010.43 1010.96 1011.33 1011.56 1011.73 1011.91 1012.12 1012.39 1012.69 1012.97 1013.19 1013.33 1013.38 1013.37 1013.36 1013.41 1013.57 1013.83 1014.20 1014.61 1015.01 1015.32 1015.52
1009.40 1009.32 1008.92 1008.22 1007.29 1006.26 1005.27 1004.45 1003.90 1003.69 1003.77 1004.08 1004.50 1004.90 1005.20 1005.33 1005.34 1005.27 1005.24 1005.36 1005.69 1006.27 1007.07 1007.99 1008.94 1009.80 1010.49 1010.99 1011.30 1011.49 1011.62 1011.76 1011.97 1012.23 1012.53 1012.82 1013.04 1013.18 1013.23 1013.23 1013.23 1013.29 1013.46 1013.75 1014.14 1014.58 1014.99 1015.31 1015.50
1009.30 1009.04 1008.49 1007.70 1006.76 1005.79 1004.94 1004.32 1003.99 1003.98 1004.22 1004.61 1005.03 1005.36 1005.54 1005.54 1005.41 1005.25 1005.17 1005.28 1005.64 1006.27 1007.12 1008.08 1009.04 1009.87 1010.52 1010.94 1011.18 1011.29 1011.36 1011.47 1011.65 1011.92 1012.23 1012.54 1012.79 1012.95 1013.02 1013.03 1013.03 1013.09 1013.26 1013.54 1013.92 1014.35 1014.77 1015.08 1015.27
1009.07 1008.69 1008.05 1007.22 1006.32 1005.47 1004.79 1004.38 1004.27 1004.44 1004.81 1005.26 1005.67 1005.94 1006.01 1005.89 1005.65 1005.41 1005.28 1005.38 1005.76 1006.41 1007.27 1008.24 1009.17 1009.95 1010.51 1010.85 1010.99 1011.02 1011.02 1011.08 1011.25 1011.52 1011.85 1012.19 1012.47 1012.66 1012.75 1012.76 1012.75 1012.78 1012.91 1013.15 1013.49 1013.89 1014.28 1014.60 1014.78
1008.76 1008.30 1007.62 1006.81 1005.99 1005.29 1004.80 1004.59 1004.68 1005.02 1005.51 1006.01 1006.42 1006.64 1006.64 1006.44 1006.12 1005.82 1005.66 1005.73 1006.10 1006.74 1007.57 1008.49 1009.35 1010.05 1010.51 1010.75 1010.79 1010.73 1010.67 1010.69 1010.83 1011.10 1011.45 1011.82 1012.14 1012.35 1012.45 1012.44 1012.40 1012.37 1012.43 1012.59 1012.86 1013.20 1013.56 1013.86 1014.06
1008.41 1007.92 1007.26 1006.51 1005.81 1005.26 1004.96 1004.94 1005.20 1005.69 1006.28 1006.84 1007.27 1007.48 1007.45 1007.22 1006.87 1006.54 1006.35 1006.39 1006.71 1007.29 1008.05 1008.87 1009.62 1010.20 1010.55 1010.68 1010.63 1010.50 1010.38 1010.36 1010.48 1010.75 1011.11 1011.50 1011.83 1012.06 1012.15 1012.11 1012.01 1011.90 1011.86 1011.91 1012.08 1012.34 1012.65 1012.95 1013.18
1008.08 1007.62 1007.01 1006.36 1005.79 1005.39 1005.25 1005.40 1005.80 1006.41 1007.08 1007.71 1008.19 1008.43 1008.43 1008.22 1007.88 1007.55 1007.34 1007.34 1007.58 1008.06 1008.69 1009.37 1009.98 1010.43 1010.67 1010.69 1010.57 1010.37 1010.21 1010.16 1010.27 1010.53 1010.89 1011.28 1011.61 1011.83 1011.90 1011.82 1011.65 1011.44 1011.28 1011.20 1011.26 1011.42 1011.68 1011.97 1012.24
1007.87 1007.46 1006.94 1006.40 1005.95 1005.69 1005.69 1005.95 1006.46 1007.14 1007.89 1008.58 1009.12 1009.44 1009.51 1009.37 1009.09 1008.79 1008.56 1008.51 1008.65 1008.99 1009.46 1009.97 1010.42 1010.73 1010.86 1010.81 1010.62 1010.39 1010.20 1010.13 1010.22 1010.45 1010.79 1011.16 1011.48 1011.68 1011.72 1011.59 1011.35 1011.05 1010.77 1010.57 1010.50 1010.57 1010.76 1011.04 1011.35
1007.82 1007.49 1007.07 1006.65 1006.33 1006.18 1006.26 1006.59 1007.14 1007.86 1008.65 1009.39 1010.00 1010.40 1010.58 1010.54 1010.36 1010.10 1009.88 1009.76 1009.80 1009.98 1010.27 1010.60 1010.90 1011.08 1011.12 1011.01 1010.80 1010.56 1010.36 1010.26 1010.32 1010.52 1010.82 1011.15 1011.44 1011.61 1011.62 1011.45 1011.15 1010.78 1010.40 1010.09 1009.91 1009.88 1010.01 1010.27 1010.60
1007.96 1007.73 1007.43 1007.12 1006.90 1006.83 1006.96 1007.31 1007.85 1008.55 1009.32 1010.07 1010.72 1011.21 1011.50 1011.58 1011.50 1011.31 1011.10 1010.94 1010.86 1010.90 1011.02 1011.19 1011.35 1011.43 1011.41 1011.28 1011.07 1010.83 1010.63 1010.51 1010.53 1010.67 1010.91 1011.18 1011.42 1011.56 1011.56 1011.38 1011.06 1010.64 1010.20 1009.82 1009.55 1009.44 1009.50 1009.71 1010.04
1008.28 1008.16 1007.98 1007.79 1007.67 1007.65 1007.79 1008.09 1008.56 1009.17 1009.86 1010.57 1011.23 1011.77 1012.14 1012.33 1012.35 1012.24 1012.06 1011.86 1011.71 1011.62 1011.61 1011.65 1011.71 1011.73 1011.69 1011.57 1011.39 1011.17 1010.97 1010.82 1010.78 1010.85 1011.00 1011.20 1011.39 1011.51 1011.50 1011.33 1011.03 1010.62 1010.17 1009.74 1009.42 1009.23 1009.23 1009.38 1009.67
1008.72 1008.72 1008.68 1008.62 1008.59 1008.62 1008.73 1008.95 1009.29 1009.74 1010.29 1010.88 1011.47 1012.00 1012.42 1012.69 1012.80 1012.77 1012.63 1012.43 1012.23 1012.08 1011.98 1011.94 1011.95 1011.95 1011.93 1011.85 1011.71 1011.52 1011.32 1011.14 1011.03 1011.00 1011.06 1011.17 1011.30 1011.39 1011.39 1011.27 1011.02 1010.66 1010.24 1009.83 1009.48 1009.25 1009.17 1009.26 1009.48
1009.20 1009.34 1009.46 1009.56 1009.63 1009.70 1009.78 1009.88 1010.04 1010.28 1010.61 1011.01 1011.47 1011.92 1012.33 1012.64 1012.82 1012.86 1012.77 1012.61 1012.41 1012.23 1012.10 1012.04 1012.04 1012.07 1012.10 1012.08 1012.00 1011.85 1011.65 1011.43 1011.24 1011.10 1011.05 1011.06 1011.12 1011.19 1011.22 1011.15 1010.99 1010.72 1010.37 1010.00 1009.66 1009.40 1009.27 1009.28 1009.42
1009.63 1009.95 1010.26 1010.53 1010.74 1010.86 1010.90 1010.87 1010.83 1010.81 1010.87 1011.02 1011.27 1011.59 1011.93 1012.24 1012.46 1012.56 1012.55 1012.44 1012.28 1012.12 1012.01 1011.97 1012.01 1012.09 1012.19 1012.24 1012.23 1012.12 1011.92 1011.66 1011.39 1011.14 1010.97 1010.88 1010.87 1010.91 1010.96 1010.96 1010.89 1010.73 1010.49 1010.19 1009.89 1009.63 1009.46 1009.40 1009.44
1009.95 1010.46 1010.99 1011.47 1011.84 1012.04 1012.05 1011.91 1011.65 1011.36 1011.11 1010.97 1010.97 1011.11 1011.34 1011.60 1011.84 1012.00 1012.07 1012.04 1011.95 1011.85 1011.79 1011.80 1011.89 1012.04 1012.21 1012.34 1012.39 1012.32 1012.13 1011.83 1011.48 1011.13 1010.85 1010.65 1010.57 1010.57 1010.63 1010.70 1010.72 1010.67 1010.54 1010.33 1010.09 1009.85 1009.66 1009.54 1009.51
1010.09 1010.82 1011.59 1012.30 1012.85 1013.15 1013.18 1012.93 1012.48 1011.92 1011.38 1010.94 1010.68 1010.60 1010.69 1010.90 1011.14 1011.35 1011.49 1011.55 1011.55 1011.52 1011.52 1011.59 1011.74 1011.95 1012.18 1012.38 1012.48 1012.45 1012.26 1011.94 1011.53 1011.10 1010.71 1010.42 1010.26 1010.22 1010.27 1010.38 1010.47 1010.52 1010.48 1010.37 1010.20 1010.01 1009.82 1009.67 1009.57
1010.05 1010.99 1012.01 1012.95 1013.69 1014.12 1014.17 1013.86 1013.26 1012.48 1011.67 1010.96 1010.45 1010.17 1010.13 1010.27 1010.51 1010.76 1010.98 1011.12 1011.20 1011.25 1011.31 1011.42 1011.60 1011.85 1012.12 1012.36 1012.50 1012.49 1012.32 1011.99 1011.55 1011.06 1010.60 1010.23 1009.99 1009.90 1009.93 1010.04 1010.17 1010.28 1010.32 1010.29 1010.19 1010.05 1009.88 1009.73 1009.60
1009.84 1010.98 1012.21 1013.37 1014.29 1014.84 1014.94 1014.61 1013.90 1012.95 1011.94 1011.02 1010.31 1009.87 1009.72 1009.81 1010.05 1010.34 1010.63 1010.84 1010.99 1011.09 1011.18 1011.31 1011.50 1011.75 1012.02 1012.27 1012.43 1012.45 1012.31 1011.99 1011.54 1011.03 1010.52 1010.09 1009.79 1009.63 1009.62 1009.70 1009.83 1009.97 1010.06 1010.08 1010.04 1009.95 1009.83 1009.70 1009.58
1009.54 1010.80 1012.19 1013.51 1014.57 1015.23 1015.40 1015.06 1014.31 1013.27 1012.13 1011.08 1010.24 1009.71 1009.49 1009.55 1009.80 1010.14 1010.48 1010.75 1010.95 1011.07 1011.17 1011.28 1011.43 1011.65 1011.89 1012.12 1012.29 1012.33 1012.21 1011.92 1011.50 1010.99 1010.48 1010.01 1009.66 1009.44 1009.36 1009.39 1009.49 1009.61 1009.71 1009.77 1009.77 1009.73 1009.66 1009.57 1009.48
1009.19 1010.51 1011.97 1013.38 1014.52 1015.25 1015.47 1015.16 1014.41 1013.35 1012.18 1011.08 1010.20 1009.64 1009.40 1009.47 1009.74 1010.12 1010.51 1010.82 1011.04 1011.17 1011.24 1011.30 1011.39 1011.53 1011.72 1011.91 1012.06 1012.11 1012.02 1011.78 1011.41 1010.94 1010.44 1009.97 1009.58 1009.31 1009.16 1009.12 1009.16 1009.23 1009.31 1009.37 1009.39 1009.39 1009.36 1009.33 1009.28
1008.89 1010.17 1011.61 1013.00 1014.15 1014.90 1015.15 1014.89 1014.18 1013.17 1012.05 1010.99 1010.14 1009.61 1009.41 1009.51 1009.83 1010.24 1010.66 1011.00 1011.22 1011.32 1011.34 1011.34 1011.35 1011.40 1011.51 1011.64 1011.76 1011.81 1011.75 1011.56 1011.25 1010.84 1010.38 1009.93 1009.52 1009.21 1008.99 1008.88 1008.85 1008.86 1008.89 1008.92 1008.95 1008.96 1008.96 1008.97 1008.98
1008.69 1009.85 1011.17 1012.46 1013.54 1014.25 1014.50 1014.28 1013.66 1012.75 1011.73 1010.78 1010.04 1009.59 1009.46 1009.62 1009.98 1010.43 1010.86 1011.21 1011.41 1011.48 1011.45 1011.37 1011.29 1011.25 1011.27 1011.33 1011.41 1011.45 1011.41 1011.27 1011.02 1010.67 1010.27 1009.85 1009.45 1009.11 1008.85 1008.67 1008.55 1008.50 1008.47 1008.46 1008.46 1008.47 1008.50 1008.53 1008.58
1008.65 1009.62 1010.74 1011.84 1012.77 1013.40 1013.63 1013.45 1012.93 1012.15 1011.30 1010.51 1009.91 1009.58 1009.54 1009.76 1010.16 1010.63 1011.07 1011.40 1011.58 1011.61 1011.53 1011.38 1011.22 1011.09 1011.03 1011.02 1011.04 1011.05 1011.02 1010.92 1010.72 1010.43 1010.08 1009.70 1009.32 1008.98 1008.68 1008.45 1008.28 1008.15 1008.06 1008.01 1007.97 1007.96 1007.98 1008.02 1008.09
1008.79 1009.52 1010.38 1011.25 1012.00 1012.50 1012.68 1012.54 1012.12 1011.51 1010.83 1010.23 1009.80 1009.60 1009.66 1009.93 1010.35 1010.81 1011.23 1011.54 1011.69 1011.69 1011.56 1011.36 1011.14 1010.94 1010.81 1010.73 1010.69 1010.67 1010.62 1010.52 1010.35 1010.11 1009.80 1009.46 1009.11 1008.78 1008.48 1008.21 1008.00 1007.82 1007.68 1007.57 1007.49 1007.45 1007.44 1007.47 1007.52
1009.07 1009.56 1010.16 1010.78 1011.31 1011.67 1011.81 1011.70 1011.38 1010.93 1010.45 1010.03 1009.77 1009.70 1009.83 1010.14 1010.55 1010.98 1011.36 1011.62 1011.73 1011.70 1011.54 1011.31 1011.05 1010.82 1010.62 1010.48 1010.39 1010.32 1010.23 1010.11 1009.95 1009.72 1009.44 1009.13 1008.81 1008.49 1008.19 1007.93 1007.68 1007.47 1007.29 1007.13 1007.01 1006.92 1006.88 1006.88 1006.92
Thickness
5842 5842 5841 5835 5818 5807 5811 5848 5866 5868 5872 5883 5886 5880 5867 5856 5845 5832 5866 5877 5867 5854 5844 5837 5833 5828 5824 5820 5817 5813 5810 5806 5802 5799 5796 5793 5790 5787 5784 5782 5780 5778 5776 5774 5772 5770 5768 5766 5763
5847 5847 5840 5832 5813 5802 5823 5857 5863 5869 5879 5889 5887 5881 5867 5858 5866 5863 5867 5870 5863 5852 5843 5837 5830 5826 5822 5818 5815 5811 5808 5805 5801 5798 5795 5791 5788 5786 5783 5781 5778 5776 5775 5773 5770 5768 5767 5765 5762
5851 5852 5838 5833 5826 5826 5840 5865 5870 5882 5889 5886 5879 5876 5863 5855 5863 5864 5867 5869 5861 5850 5842 5833 5828 5823 5819 5816 5812 5809 5806 5803 5800 5796 5793 5790 5787 5784 5782 5779 5777 5775 5773 5771 5769 5767 5765 5763 5761
5848 5844 5839 5833 5835 5858 5867 5873 5880 5882 5883 5886 5880 5863 5860 5868 5869 5868 5871 5867 5856 5847 5839 5830 5825 5821 5817 5813 5810 5807 5804 5801 5797 5794 5791 5788 5785 5782 5780 5778 5775 5773 5772 5770 5768 5766 5764 5762 5760
5847 5839 5829 5832 5849 5871 5882 5882 5884 5876 5874 5879 5872 5850 5847 5864 5872 5870 5868 5862 5853 5846 5837 5828 5823 5818 5814 5811 5807 5804 5801 5798 5795 5791 5788 5786 5783 5780 5778 5776 5774 5771 5770 5768 5766 5764 5762 5760 5758
5836 5840 5826 5833 5856 5874 5885 5885 5883 5873 5871 5873 5865 5850 5844 5862 5863 5864 5864 5861 5856 5846 5836 5825 5819 5815 5811 5807 5804 5801 5798 5794 5791 5788 5785 5783 5780 5777 5775 5773 5771 5769 5767 5765 5764 5762 5760 5758 5756
5827 5827 5825 5839 5856 5869 5877 5884 5877 5868 5863 5866 5869 5846 5841 5853 5861 5864 5862 5859 5855 5847 5834 5823 5817 5812 5808 5804 5801 5797 5794 5791 5788 5784 5781 5779 5776 5774 5772 5770 5767 5766 5764 5762 5761 5759 5758 5756 5754
5839 5827 5824 5840 5854 5867 5879 5880 5879 5869 5859 5873 5870 5840 5829 5847 5861 5861 5857 5854 5851 5843 5833 5824 5818 5812 5806 5801 5797 5794 5790 5787 5783 5780 5777 5774 5771 5769 5767 5766 5764 5762 5760 5759 5757 5756 5755 5754 5752
5839 5814 5814 5837 5855 5865 5874 5866 5873 5877 5863 5857 5857 5848 5848 5857 5857 5850 5846 5844 5841 5837 5831 5826 5820 5812 5807 5802 5797 5791 5787 5783 5779 5776 5773 5770 5769 5768 5766 5764 5762 5760 5758 5756 5754 5753 5752 5751 5750
5827 5808 5823 5851 5860 5860 5863 5858 5861 5857 5841 5836 5839 5846 5852 5851 5845 5838 5834 5831 5828 5825 5825 5824 5819 5811 5806 5803 5796 5790 5786 5782 5778 5776 5773 5768 5767 5766 5766 5765 5762 5758 5755 5753 5751 5749 5749 5748 5749
5827 5818 5833 5847 5857 5857 5853 5853 5858 5843 5820 5819 5823 5831 5840 5839 5833 5830 5827 5826 5822 5820 5819 5818 5813 5807 5802 5799 5793 5790 5787 5784 5778 5775 5772 5768 5766 5763 5763 5763 5761 5756 5753 5750 5749 5746 5746 5747 5748
5825 5829 5837 5841 5850 5846 5844 5845 5839 5827 5817 5823 5824 5826 5828 5825 5822 5821 5818 5816 5815 5811 5809 5808 5806 5800 5795 5792 5788 5786 5784 5781 5778 5774 5770 5767 5763 5760 5758 5758 5757 5755 5752 5750 5749 5747 5746 5746 5748
5825 5828 5838 5843 5844 5843 5840 5833 5827 5814 5818 5817 5815 5813 5811 5811 5811 5810 5809 5807 5805 5800 5798 5796 5795 5791 5786 5782 5778 5778 5776 5774 5773 5769 5765 5762 5759 5755 5753 5752 5751 5750 5749 5749 5747 5746 5746 5745 5745
5826 5832 5836 5838 5838 5837 5828 5824 5817 5803 5809 5804 5798 5795 5796 5796 5796 5795 5794 5792 5791 5789 5787 5787 5785 5782 5778 5774 5770 5768 5767 5766 5764 5762 5759 5755 5752 5749 5747 5745 5745 5744 5743 5743 5743 5742 5742 5742 5742
5830 5820 5822 5829 5831 5830 5824 5803 5796 5797 5796 5787 5784 5782 5782 5784 5784 5782 5781 5780 5780 5778 5777 5776 5775 5773 5769 5766 5763 5762 5760 5758 5756 5753 5751 5748 5746 5743 5742 5740 5739 5739 5738 5737 5737 5736 5736 5737 5738
5819 5808 5798 5813 5819 5824 5811 5777 5786 5791 5782 5775 5774 5772 5771 5771 5773 5773 5773 5771 5770 5769 5767 5765 5765 5762 5760 5757 5754 5753 5751 5748 5746 5744 5741 5739 5737 5735 5735 5734 5734 5734 5733 5732 5730 5729 5727 5729 5731
5801 5784 5780 5786 5804 5810 5804 5775 5780 5785 5776 5768 5767 5765 5764 5764 5765 5766 5766 5764 5762 5759 5757 5754 5752 5750 5748 5747 5745 5744 5742 5739 5737 5735 5732 5730 5728 5727 5727 5728 5728 5727 5727 5726 5725 5724 5723 5721 5723
5775 5771 5764 5761 5783 5796 5791 5778 5779 5782 5776 5767 5764 5762 5759 5757 5757 5759 5758 5757 5754 5751 5749 5746 5743 5740 5738 5737 5736 5734 5732 5730 5729 5727 5724 5721 5719 5718 5718 5720 5721 5721 5720 5720 5719 5718 5717 5716 5716
5793 5782 5770 5769 5785 5788 5785 5779 5777 5778 5773 5766 5762 5759 5755 5753 5755 5755 5753 5751 5747 5743 5739 5736 5732 5730 5727 5724 5721 5720 5719 5719 5719 5719 5716 5713 5711 5709 5708 5709 5711 5711 5711 5711 5711 5711 5710 5710 5713
5799 5787 5776 5778 5790 5789 5783 5774 5773 5771 5768 5765 5760 5755 5752 5749 5748 5747 5745 5744 5739 5734 5731 5729 5725 5721 5718 5715 5712 5712 5711 5711 5711 5710 5707 5705 5702 5701 5700 5699 5700 5701 5702 5703 5704 5704 5703 5704 5707
5793 5782 5775 5773 5783 5788 5776 5760 5758 5761 5762 5760 5759 5757 5753 5749 5744 5742 5740 5737 5734 5729 5726 5723 5717 5714 5710 5706 5704 5702 5700 5700 5699 5698 5697 5696 5694 5692 5691 5690 5691 5691 5692 5693 5696 5697 5696 5695 5699
5776 5789 5788 5778 5765 5758 5761 5729 5738 5744 5747 5751 5752 5753 5751 5749 5744 5740 5736 5732 5728 5725 5723 5717 5712 5707 5702 5697 5692 5688 5685 5684 5685 5685 5685 5685 5685 5684 5683 5682 5681 5682 5683 5683 5686 5689 5689 5689 5690
5788 5796 5785 5771 5754 5742 5729 5709 5710 5729 5732 5741 5749 5752 5750 5746 5742 5736 5733 5728 5725 5721 5717 5711 5705 5699 5694 5689 5684 5679 5676 5674 5674 5673 5673 5674 5675 5675 5675 5674 5673 5672 5672 5674 5676 5678 5680 5681 5683
5807 5796 5776 5751 5730 5705 5705 5696 5702 5722 5733 5740 5748 5750 5747 5744 5740 5735 5731 5726 5720 5716 5710 5705 5697 5690 5685 5680 5675 5671 5667 5664 5662 5661 5661 5663 5666 5667 5667 5666 5664 5663 5663 5663 5665 5667 5670 5672 5675
5800 5778 5743 5710 5691 5695 5718 5706 5716 5745 5754 5752 5749 5747 5746 5743 5738 5731 5725 5720 5714 5709 5703 5697 5690 5682 5677 5672 5667 5663 5659 5656 5654 5654 5655 5654 5654 5654 5655 5655 5654 5654 5653 5654 5655 5657 5659 5662 5665
5790 5780 5745 5722 5723 5726 5727 5711 5731 5757 5760 5759 5755 5751 5746 5741 5736 5729 5723 5717 5709 5703 5696 5689 5682 5675 5670 5664 5660 5655 5652 5649 5648 5647 5645 5643 5643 5644 5645 5645 5645 5645 5645 5645 5646 5647 5649 5653 5656
5786 5783 5789 5769 5764 5744 5728 5730 5739 5756 5755 5754 5752 5748 5743 5738 5733 5727 5720 5712 5704 5696 5689 5682 5675 5668 5663 5658 5653 5650 5647 5643 5640 5637 5636 5636 5636 5636 5636 5635 5634 5635 5635 5636 5636 5637 5639 5642 5645
5798 5791 5780 5763 5743 5738 5743 5735 5726 5740 5744 5747 5745 5741 5737 5733 5728 5720 5712 5705 5698 5690 5683 5676 5669 5662 5657 5652 5647 5643 5639 5635 5632 5630 5628 5626 5625 5625 5625 5625 5624 5624 5625 5626 5627 5627 5630 5632 5635
5785 5781 5773 5766 5759 5739 5734 5727 5750 5745 5746 5744 5742 5739 5733 5727 5720 5713 5706 5699 5691 5683 5676 5668 5661 5655 5649 5644 5639 5634 5630 5627 5623 5621 5619 5618 5616 5615 5614 5613 5612 5612 5612 5614 5615 5617 5619 5621 5625
5791 5779 5771 5750 5746 5753 5746 5731 5761 5756 5755 5747 5740 5735 5729 5721 5714 5708 5700 5692 5683 5675 5668 5660 5653 5647 5642 5637 5632 5627 5623 5619 5616 5613 5611 5609 5606 5604 5603 5601 5600 5599 5599 5600 5601 5603 5606 5609 5613